Nashua, NH

2:39 AM EDT on October 23, 2019 (GMT -0400)
Boire

Weather History for KASH - August, 2019

Change the Weather History Date:

Thursday, August 29, 2019

  Actual Average Record
Temperature  
Mean Temperature 74 °F -  
Max Temperature 84 °F 78 °F 99 °F (1948)
Min Temperature 62 °F 56 °F 37 °F (1982)
Cooling Degree Days 9    
Growing Degree Days 24 (Base 50)    
Moisture  
Dew Point 62 °F    
Average Humidity 81    
Maximum Humidity 100    
Minimum Humidity 37    
Precipitation  
Precipitation 0.06 in - - ()
Sea Level Pressure  
Sea Level Pressure 29.83 in    
Wind  
Wind Speed 5 mph ()    
Max Wind Speed 13 mph    
Max Gust Speed -    
Visibility 10.0 miles    
Events Rain    
Averages and records for this station are not official NWS values.
T = Trace of Precipitation, MM = Missing Value Source: Averaged Metar Reports

Daily Weather History Graph

Daily Weather History Graph

Search for Another Location

Airport or City:

Astronomy

Aug. 29, 2019 Rise Set
Actual Time 6:07 AM EDT 7:26 PM EDT
Civil Twilight 5:37 AM EDT 7:55 PM EDT
Nautical Twilight 5:02 AM EDT 8:30 PM EDT
Astronomical Twilight 4:25 AM EDT 9:07 PM EDT
Moon 4:45 AM EDT (8/29) 7:22 PM EDT (8/29)
Length of Visible Light 14h 17m
Length of Day
13h 18m
Waning Crescent, 1% of the Moon is Illuminated
Aug 29
Waning Crescent
Aug 30
New
Sep 5
First Quarter
Sep 14
Full
Sep 21
Last Quarter

Hourly Weather History & Observations

Time (EDT) Temp. Heat Index Dew Point Humidity Pressure Visibility Wind Dir Wind Speed Gust Speed Precip Events Conditions
12:56 AM 64.9 °F - 64.9 °F 100% 29.83 in 10.0 mi NW 5.8 mph - 0.03 in   Overcast
1:13 AM 64.4 °F - 64.4 °F 100% 29.82 in 10.0 mi WNW 5.8 mph - 0.01 in   Overcast
1:23 AM 64.4 °F - 64.4 °F 100% 29.82 in 10.0 mi WNW 4.6 mph - 0.01 in   Overcast
1:56 AM 64.9 °F - 64.9 °F 100% 29.81 in 10.0 mi NNW 4.6 mph - 0.01 in Rain Light Rain
2:52 AM 64.4 °F - 64.4 °F 100% 29.79 in 10.0 mi NNW 5.8 mph - 0.01 in Rain Light Rain
2:56 AM 64.9 °F - 64.9 °F 100% 29.81 in 10.0 mi North 4.6 mph - 0.01 in   Overcast
3:22 AM 64.4 °F - 64.4 °F 100% 29.79 in 10.0 mi NW 6.9 mph - N/A   Overcast
3:31 AM 64.4 °F - 64.4 °F 100% 29.79 in 10.0 mi WNW 9.2 mph - N/A   Overcast
3:56 AM 64.9 °F - 64.9 °F 100% 29.80 in 10.0 mi NW 5.8 mph - 0.01 in   Overcast
4:10 AM 64.4 °F - 64.4 °F 100% 29.79 in 10.0 mi NW 3.5 mph - 0.00 in Rain Light Rain
4:28 AM 64.4 °F - 64.4 °F 100% 29.80 in 10.0 mi Calm Calm - 0.00 in Rain Light Rain
4:56 AM 64.9 °F - 64.9 °F 100% 29.81 in 10.0 mi Calm Calm - 0.00 in Rain Light Rain
5:06 AM 64.4 °F - 64.4 °F 100% 29.80 in 10.0 mi NW 3.5 mph - 0.00 in   Mostly Cloudy
5:13 AM 64.4 °F - 64.4 °F 100% 29.80 in 10.0 mi NW 3.5 mph - 0.00 in   Scattered Clouds
5:56 AM 64.9 °F - 64.9 °F 100% 29.83 in 10.0 mi NW 3.5 mph - 0.00 in   Overcast
6:56 AM 64.0 °F - 64.0 °F 100% 29.83 in 10.0 mi West 3.5 mph - N/A   Mostly Cloudy
7:56 AM 66.0 °F - 66.0 °F 100% 29.83 in 10.0 mi WNW 4.6 mph - N/A   Partly Cloudy
8:56 AM 70.0 °F - 66.0 °F 87% 29.82 in 10.0 mi NW 9.2 mph - N/A   Clear
9:56 AM 73.0 °F - 64.9 °F 76% 29.83 in 10.0 mi NW 10.4 mph - N/A   Clear
10:56 AM 77.0 °F - 63.0 °F 62% 29.85 in 10.0 mi NNW 9.2 mph - N/A   Clear
11:56 AM 79.0 °F - 61.0 °F 54% 29.84 in 10.0 mi NW 9.2 mph - N/A   Clear
12:56 PM 80.1 °F 81.1 °F 61.0 °F 52% 29.83 in 10.0 mi North 8.1 mph - N/A   Clear
1:56 PM 81.0 °F 81.6 °F 60.1 °F 49% 29.82 in 10.0 mi WNW 8.1 mph - N/A   Partly Cloudy
2:56 PM 82.9 °F 82.6 °F 57.9 °F 42% 29.81 in 10.0 mi NW 11.5 mph - N/A   Scattered Clouds
3:56 PM 82.9 °F 82.6 °F 57.9 °F 42% 29.81 in 10.0 mi NW 12.7 mph - N/A   Scattered Clouds
4:56 PM 84.0 °F 83.3 °F 57.0 °F 40% 29.81 in 10.0 mi WNW 10.4 mph - N/A   Scattered Clouds
5:56 PM 82.0 °F 81.2 °F 53.1 °F 37% 29.82 in 10.0 mi WNW 12.7 mph - N/A   Partly Cloudy
6:56 PM 75.0 °F - 59.0 °F 57% 29.85 in 9.0 mi West 5.8 mph - N/A   Clear
7:56 PM 73.9 °F - 57.9 °F 57% 29.88 in 10.0 mi West 8.1 mph - N/A   Clear
8:56 PM 71.1 °F - 59.0 °F 66% 29.92 in 10.0 mi West 5.8 mph - N/A   Clear
9:56 PM 66.9 °F - 59.0 °F 76% 29.93 in 10.0 mi WNW 3.5 mph - N/A   Clear
10:56 PM 64.0 °F - 59.0 °F 84% 29.94 in 10.0 mi Calm Calm - N/A   Clear
11:56 PM 62.1 °F - 59.0 °F 90% 29.95 in 10.0 mi South 3.5 mph - N/A   Clear